TimeCST,TemperatureF,Dew PointF,Humidity,Sea Level PressureIn,VisibilityMPH,Wind Direction,Wind SpeedMPH,Gust SpeedMPH,PrecipitationIn,Events,Conditions,WindDirDegrees,DateUTC
12:55 AM,25.2,14.7,65,30.28,10.0,SW,3.5,-,N/A,,Clear,230,2013-01-16 06:55:00
1:55 AM,24.6,14.4,65,30.28,10.0,Calm,Calm,-,N/A,,Clear,0,2013-01-16 07:55:00
2:55 AM,23.9,14.9,69,30.29,10.0,West,5.8,-,N/A,,Clear,260,2013-01-16 08:55:00
3:55 AM,23.7,14.4,67,30.29,10.0,WSW,4.6,-,N/A,,Clear,240,2013-01-16 09:55:00
4:55 AM,23.5,14.9,70,30.27,10.0,West,6.9,-,N/A,,Clear,260,2013-01-16 10:55:00
5:55 AM,23.7,15.4,71,30.28,10.0,SSE,4.6,-,N/A,,Clear,160,2013-01-16 11:55:00
6:55 AM,23.5,15.8,72,30.30,10.0,West,8.1,-,N/A,,Clear,260,2013-01-16 12:55:00
7:55 AM,23.2,16.0,74,30.30,10.0,WSW,5.8,-,N/A,,Clear,250,2013-01-16 13:55:00
8:55 AM,30.6,18.7,61,30.30,10.0,WSW,4.6,-,N/A,,Clear,240,2013-01-16 14:55:00
9:55 AM,36.5,19.6,50,30.31,10.0,WSW,8.1,-,N/A,,Clear,250,2013-01-16 15:55:00
10:55 AM,40.5,18.0,40,30.29,10.0,West,8.1,-,N/A,,Clear,280,2013-01-16 16:55:00
11:55 AM,43.5,14.0,30,30.25,10.0,WNW,13.8,-,N/A,,Clear,290,2013-01-16 17:55:00
12:55 PM,46.6,12.9,26,30.21,10.0,WNW,11.5,-,N/A,,Clear,300,2013-01-16 18:55:00
1:55 PM,48.9,16.0,27,30.18,10.0,NW,18.4,24.2,N/A,,Clear,310,2013-01-16 19:55:00
2:55 PM,50.7,17.2,27,30.17,10.0,NNW,16.1,-,N/A,,Scattered Clouds,330,2013-01-16 20:55:00
3:55 PM,50.7,22.8,34,30.18,10.0,NW,18.4,-,N/A,,Scattered Clouds,320,2013-01-16 21:55:00
4:55 PM,51.4,24.3,35,30.18,10.0,NW,15.0,-,N/A,,Mostly Cloudy,320,2013-01-16 22:55:00
5:55 PM,50.0,26.8,41,30.20,10.0,NW,8.1,-,N/A,,Mostly Cloudy,310,2013-01-16 23:55:00
6:55 PM,44.1,27.0,51,30.22,10.0,NW,8.1,-,N/A,,Clear,310,2013-01-17 00:55:00
7:55 PM,40.6,27.7,60,30.26,10.0,NW,6.9,-,N/A,,Clear,310,2013-01-17 01:55:00
8:55 PM,40.3,28.0,62,30.27,10.0,WNW,9.2,-,N/A,,Clear,290,2013-01-17 02:55:00
9:55 PM,38.7,28.0,66,30.28,10.0,WNW,9.2,-,N/A,,Clear,290,2013-01-17 03:55:00
10:55 PM,39.6,28.4,64,30.28,10.0,West,9.2,-,N/A,,Clear,280,2013-01-17 04:55:00
11:55 PM,39.4,27.9,63,30.30,10.0,West,10.4,-,N/A,,Clear,280,2013-01-17 05:55:00